Terminal Aerodrome Forecast
Issued by NWS

Home | Current Version | Previous Version | Text Only | Print | Product List | Glossary On
Versions: 1 2 3 4 5 6 7 8 9 10 11 12 13 14 15 16 17 18 19 20 21 22 23 24 25 26
000
FTUS45 KBYZ 290524
TAFLVM
TAF
KLVM 290524Z 2906/3006 26003KT P6SM VCSH FEW030 OVC045
      TEMPO 2906/2910 BKN020
     FM291000 10007KT P6SM VCFG SCT005 OVC015
     FM291500 10015KT P6SM FEW030 BKN050
     FM291800 10015KT P6SM VCSH BKN070
     FM300100 12009KT P6SM VCSH FEW035=

USA.gov is the U.S. government's official web portal to all federal, state and local government web resources and services.